Location: Balaclava NSW 2575, Australia
(34.4510°S, 150.4953°E)
Time: 19:05:43
(UTC+10:00)

Vanguard 2 - Pass Details

Date: 19 June 2021
Orbit: 552 x 2937 km, 32.9° (Epoch: 24 July)

Event Time Altitude Azimuth Distance (km) Brightness Sun altitude
Rises 10:29:44 0° 259° (W) 5,108 11.4 28.3°
Reaches altitude 10° 10:32:39 10° 262° (W) 4,386 11.2 28.6°
Maximum altitude 10:45:31 65° 339° (NNW) 2,797 11.2 29.5°
Drops below altitude 10° 11:03:03 10° 55° (NE) 5,764 12.8 30.6°
Sets 11:07:34 0° 58° (ENE) 6,739 12.9 30.8°
